Simultaneous Nadir Overpasses (SNOs) Predictions

Prediction of SNOs between AQUA and METOP-B Satellite Orbit:

Table of predicted SNOs for the next 14.0 days since TLE Epoch: 9/20/2014
Index Date (AQUA) Time (AQUA) Lat,Lon (AQUA) SZA (AQUA ) Date (METOP-B) Time (METOP-B) Lat,Lon (METOP-B) SZA (METOP-B ) Distance(km) Time Diff (sec)
1 09/21/2014 17:16:07 -73.79, 95.30 106.81 09/21/2014 17:15:38 -73.82, 95.30 106.78 3.33 29
2 09/21/2014 18:05:36 73.86, -97.21 73.28 09/21/2014 18:06:17 73.86, -97.25 73.29 1.47 41
3 09/24/2014 12:50:23 -73.80, 161.71 105.71 09/24/2014 12:49:57 -73.82, 161.73 105.68 3.27 26
4 09/24/2014 13:39:52 73.87, -30.81 74.39 09/24/2014 13:40:36 73.87, -30.82 74.39 0.55 44
5 09/27/2014 08:24:39 -73.79,-131.85 104.62 09/27/2014 08:24:17 -73.83,-131.86 104.58 3.57 22
6 09/27/2014 09:14:08 73.87, 35.61 75.48 09/27/2014 09:14:56 73.88, 35.60 75.48 0.77 48
7 09/30/2014 03:09:16 73.13, 128.33 75.78 09/30/2014 03:08:10 73.09, 125.57 75.80 89.51 66
8 09/30/2014 03:58:55 -73.83, -65.50 103.49 09/30/2014 03:58:37 -73.82, -65.46 103.50 1.78 18
9 09/30/2014 04:48:23 73.86, 102.07 76.56 09/30/2014 04:49:16 73.87, 101.99 76.57 2.56 53
10 10/02/2014 22:43:34 73.32,-165.61 77.07 10/02/2014 22:42:26 73.28,-167.61 77.06 64.00 68
11 10/02/2014 23:33:09 -73.81, 1.00 102.43 10/02/2014 23:32:57 -73.81, 0.92 102.42 2.50 12
12 10/03/2014 00:22:38 73.90, 168.44 77.68 10/03/2014 00:23:35 73.91, 168.49 77.69 2.14 57




NCC Satellite Simultaneous Nadir Overpasses (SNOs) Prediction Service
